Terug naar catalogus

COSMOS 2251 DEB

ActiefLEO
NORAD 34304·DEBRIS·🇷🇺 Russia

Gelanceerd Jun 16, 1993 vanaf Plesetsk Cosmodrome

Loading…

Volgende Passages (komende 24 uur)

TLE

VersSource: Space-Track

Epoch: Sep 14, 2026, 14:09 UTC

1 34304U 93036NA  26257.59000181  .00001507  00000-0  44862-3 0  9991
2 34304  74.0132 332.9345 0125387  43.5715  23.7304 14.39526395912641

Volg COSMOS 2251 DEB in realtime met AllMySat

Download on the App Store